GFSSE_con_mucape_000.txt.gz
CAPE
248 564 1295 1079 1064 993 1606 1842 2199 2361 2211 2164 2186 2999 3161 3377 3414 3430 3455 3484 3126 2983 2862 2551 2643 2245 2163 2251 2111 1912 1850 1810 1758 1336 1408 1645 1836 1350 894 819 1242 687 741
682 762 1410 1632 1811 2018 1972 2303 2515 2369 2463 2629 2840 3010 3356 3332 3424 3544 3709 3260 3062 3187 2810 2741 2562 2425 2503 2335 1818 1554 1762 1557 1265 1141 1182 1533 1708 1488 1188 1064 984 890 923
1159 1324 1556 2043 2313 2183 2161 2215 2243 2525 2796 2662 2915 3075 3365 3436 3574 3490 3455 2861 2884 2527 2318 2425 2466 2423 2179 2292 2080 1677 1248 1478 1231 1158 1043 1373 1609 1385 1395 1252 884 1033 862
1137 1274 1756 2496 2686 2346 2435 2477 2595 2835 2975 3318 3473 3480 3618 3856 3745 3299 2354 2347 2377 2377 2300 2191 2134 2167 2069 2141 2080 2034 1621 1376 1259 1061 1072 1318 1215 1361 1200 939 867 1055 386
1253 1435 1763 2583 2714 2468 2820 3050 3106 3107 3064 3345 3551 3590 3809 3484 2919 2469 2275 2199 2313 2286 2139 2069 1989 2009 1951 1922 1953 2100 1854 1884 1625 1056 1070 960 1023 1415 1109 718 468 870 530
1523 1797 2747 2891 2525 2809 3122 3250 2962 2961 2936 3344 3589 3199 2996 2753 2129 2254 2294 2361 2359 2252 2102 2028 2015 2018 2037 2081 2184 2051 1887 1907 1397 1032 1236 1204 1170 985 1083 890 686 870 1078
1814 2188 2130 2698 2764 2641 3214 3619 3552 3422 3248 3213 3247 2902 3209 2981 2320 2371 2261 2107 2041 1944 1906 1912 1996 2059 2121 2155 2331 2221 1727 1873 930 1002 1002 1052 1270 1659 1466 1508 707 860 585
1838 2369 2246 2528 2725 2947 3038 3128 3606 3443 3149 3168 3033 2956 3221 2914 2612 2336 2143 2038 1875 1708 1800 1831 2002 2169 2232 2314 2372 2240 2040 1734 1325 1003 964 826 1796 1954 1131 1165 1357 1131 632
2300 2608 2646 2406 2305 2929 3489 3446 3221 3278 3094 3078 3129 3087 2709 2576 2233 2158 2133 2141 2003 1946 1939 2024 2306 2329 2491 2669 2573 2311 1992 1807 1357 1266 1460 1220 2460 1870 1212 1025 1120 1135 933
2157 2589 2705 2692 2518 2692 2918 3245 2640 3201 3042 2772 2861 2619 2699 2308 2067 2117 1994 2583 2110 2195 2115 2003 2409 2556 2533 2463 2339 2223 2148 2036 1596 1134 903 1166 2383 2165 1091 886 1003 1322 1216
1755 2234 2472 2670 2623 2574 2871 2828 3217 2725 3025 2898 2667 2849 3069 1948 1567 643 1035 1064 1652 2153 2280 1969 2206 2404 2619 2279 2141 2282 2325 2003 1189 1264 1182 1518 2217 2268 1565 1199 529 782 1295
1730 1809 2138 2233 2436 2511 3002 2597 2651 2519 2613 2485 2486 2302 1807 1213 1106 1163 756 639 859 1980 2168 1947 2097 1979 1926 1097 754 1321 1894 1840 1405 1247 1129 1888 2145 2131 1723 1721 1046 594 721
1646 1689 1746 2188 2183 2279 2438 2362 2196 2185 2368 2208 1916 1610 1596 1361 1267 1006 886 938 928 1422 1535 1766 1856 1485 1318 1079 779 681 773 981 1347 1371 983 1639 2001 2020 2119 1736 1477 1056 804
1755 1828 1887 2218 2097 2043 2074 2125 1897 1804 1791 2015 1734 1641 1480 1606 983 801 1152 1416 1227 1235 1102 1144 1115 1018 1042 940 868 800 738 854 504 1221 1258 2018 1847 1965 2359 1899 1781 1333 1103
1439 1454 1823 2001 1815 1975 1945 1810 1849 1869 1883 1798 1722 1626 1678 1565 1126 1464 1502 1350 1225 1088 1009 1128 1089 972 800 654 760 812 913 974 479 369 1440 2363 2122 2201 2517 2287 2384 1725 1493
1435 1768 1951 2053 2007 2035 1755 1869 1866 1912 1892 1879 1779 1645 1673 1517 1211 1473 1162 967 682 1096 897 965 891 769 773 725 681 601 622 742 836 419 1042 1349 2348 2062 2416 3013 2853 2716 1784
1497 1831 1976 1944 2233 2033 2112 1815 1382 1635 1511 1572 1579 1604 1446 1405 1449 1343 1136 988 645 677 708 777 573 348 376 477 592 616 491 403 646 592 424 1144 1445 2601 2058 2489 3193 2935 2937
902 1734 1792 1958 2277 1985 1958 1984 2201 1851 1752 1621 1451 1342 1192 1178 1305 1249 1207 910 806 779 683 614 545 535 421 366 352 308 341 187 389 557 573 606 1160 1511 1966 2092 2134 2982 3047
1025 1571 1778 2057 2116 1927 2038 2233 2159 2017 1699 1527 1684 1410 1377 1185 1114 1268 968 1014 1022 863 758 805 694 634 444 358 332 452 524 460 345 476 425 650 663 1023 1143 1651 1727 1827 2565
525 950 1330 1763 2130 2188 2226 2217 2075 1898 1964 1944 1520 1328 1215 1100 1142 1278 1050 962 924 951 876 774 653 417 499 395 309 576 442 382 231 272 298 280 411 723 1164 1240 1195 1344 1990
634 834 851 1007 1624 2212 1869 1948 2189 2164 1790 1347 1110 1071 1313 1143 1086 1096 1042 940 949 853 782 792 759 792 627 356 494 246 186 104 95 78 233 325 354 514 787 963 1122 1000 1364
705 828 1177 1095 1763 1879 1759 1771 1701 1766 1525 1415 1608 1755 1400 1062 1043 965 1145 1115 788 584 514 395 342 488 428 575 491 248 49 2 33 0 44 108 334 477 570 645 667 1033 834
833 1181 1301 1460 1819 1674 1756 1736 1919 2033 1774 1615 1761 1734 1194 1041 721 274 263 179 193 326 237 386 416 503 411 452 417 249 94 29 19 0 5 18 97 184 196 209 237 397 703
1134 1596 1615 1914 2044 2099 2149 1974 1910 1074 716 275 1163 1332 531 0 0 1 23 193 313 152 243 309 548 496 411 290 284 247 188 132 92 32 0 0 0 0 6 58 243 281 410
1388 1934 1841 2112 2351 2320 2051 1932 2111 742 21 185 386 0 0 0 0 0 168 284 130 13 28 298 115 350 326 410 218 156 43 11 23 0 0 0 0 0 7 44 51 159 181
1566 1982 2153 2225 2087 2223 2307 2067 1480 0 0 48 2 0 0 0 19 47 86 0 0 0 12 56 182 193 148 228 148 25 0 0 0 0 0 0 0 0 0 0 4 30 202

GFSSE_con_mucape_003.txt.gz
CAPE
193 346 1006 1286 1238 1308 794 870 910 1026 1255 1484 2480 2569 2738 2586 2963 3136 3069 2705 2784 2783 2546 2357 2095 2057 2193 2109 2082 2025 1874 1874 1670 1484 1679 1750 1262 1032 1088 1145 957 814 937
210 494 1327 1410 1112 992 1100 1331 1243 1579 1979 2413 2715 2759 2987 2706 3005 3190 2644 2455 2656 2559 2400 2292 2109 2360 2196 1820 1593 1739 1657 1515 1468 1310 1563 1747 1539 1393 1088 1163 1037 940 576
621 465 873 1601 1566 1918 1933 2015 1960 1815 1834 2743 2783 3063 3197 2894 2863 2812 2689 2468 2236 2155 2239 2327 2287 2166 2158 1989 1736 1267 1295 1456 1427 1223 1433 1579 1460 1127 1294 986 925 931 1044
1111 1132 1304 1778 2349 1920 1847 2013 2479 2147 2107 2911 3115 3398 3325 3122 3374 2902 2333 2197 2111 2095 2046 1966 1940 1859 1893 2003 1920 1764 1514 1287 1328 1196 1268 1431 1156 1369 1359 749 679 702 995
1275 1594 1791 2406 2151 2264 2414 2787 3023 2973 2849 3274 3260 3310 3376 3272 2632 2082 1892 1865 1964 1919 1857 1815 1785 1809 1822 1898 1870 1968 1867 1636 1396 1021 1182 1026 960 1473 1030 745 525 645 278
1488 1729 2345 2612 2360 2648 2492 3241 3201 3224 3253 3334 3551 3403 3021 2600 2219 2042 1938 2060 2009 1836 1725 1670 1677 1695 1766 1840 1994 1874 1687 1734 1426 840 829 986 1092 1179 1185 550 681 660 632
1938 2004 2079 2910 3095 3350 3341 3062 3086 2986 3231 3458 3291 2657 2679 2304 2078 2073 2066 2029 1881 1808 1743 1759 1817 1845 1936 1847 2029 2143 1564 1774 806 786 821 941 1066 1384 1367 1295 797 1185 1166
2142 2208 2356 2839 2928 3253 3077 3245 3319 3003 2548 2976 2500 2510 2535 2546 2457 2132 1928 1773 1653 1526 1625 1638 1802 1929 1988 2167 2286 2084 1946 1643 1521 792 835 925 1411 1797 1374 1401 863 806 961
2344 2301 2213 2339 2431 2772 3434 3424 3198 2910 2738 2417 2565 2516 2430 2452 2338 2095 1917 1792 1677 1691 1734 1804 2068 2200 2215 2433 2477 2152 1895 1671 1238 1019 1030 510 2040 1706 1180 1062 1617 971 974
2344 2449 2347 2350 2410 2621 2925 2973 2607 2868 2484 2266 2363 2260 2336 2262 1899 1901 2061 2320 1927 2133 2103 2054 1885 2113 2302 2269 2225 1910 1908 1962 1380 1086 988 1058 1894 1760 1380 983 1332 1310 935
2196 2372 2457 2514 2423 2713 2896 2491 2579 2376 2535 2568 2439 2596 2998 2002 1714 1578 1135 1426 1393 1926 2092 1865 1893 1830 1799 1988 1962 1846 1592 1330 1281 1098 1131 1249 1672 1990 1523 1071 1144 1188 1414
1830 2165 2176 2398 2408 2546 2888 2726 2425 2025 2302 2144 2202 2323 1887 1256 1116 670 923 842 808 1465 1828 1722 1739 1774 1677 978 626 628 559 1039 1257 986 999 1355 1755 1623 1731 1101 945 913 1524
1464 1840 1999 2065 2203 2249 2641 2585 2312 2051 1952 1874 1904 1925 1572 903 915 1050 634 653 723 1144 1441 1186 1477 1151 970 940 822 677 707 697 694 1016 1159 1508 1971 1655 2055 1642 1057 756 836
1509 1580 1829 2008 2264 2196 2244 2268 2115 2038 1972 1821 1650 1607 1281 1266 1035 857 636 855 1084 1059 843 735 859 712 867 776 589 658 707 784 839 597 926 1706 1946 1684 1809 2224 1595 1253 858
1565 1669 1782 2133 2154 2075 1879 2021 1936 1746 1655 1639 1733 1457 1398 1212 1072 745 920 881 898 768 838 804 825 734 514 509 510 517 513 467 561 648 578 1870 2212 2260 1973 2321 2170 1682 1274
1545 1603 1832 2087 2127 1994 1939 1960 1643 1638 1465 1491 1405 1564 1442 1466 1237 987 863 767 669 586 709 733 651 465 324 298 321 352 350 339 441 583 524 877 2476 2627 2506 2152 2330 2137 1343
1481 1559 1784 2047 1935 1858 1981 1832 1580 1676 1644 1641 1621 1582 1527 1521 1515 1274 1161 825 724 521 454 403 346 263 318 204 127 155 131 122 101 271 462 382 1020 2218 2779 2570 2280 2114 2321
1321 1568 1749 2094 2077 1986 2204 1921 1725 1667 1558 1403 1425 1370 1388 1180 1153 1162 996 841 737 627 605 557 566 424 329 163 140 129 184 268 234 146 324 492 642 1323 1834 2676 2350 2027 1954
1229 1586 1804 2080 2065 2133 2216 2238 1670 1556 1440 1326 1271 1178 1211 1057 899 944 821 718 651 747 667 630 504 451 265 162 171 114 214 303 235 203 139 168 203 672 1085 1550 1928 1965 1766
1011 1502 1935 1986 2108 2178 1989 1831 1723 1833 1721 1409 1441 1241 1022 874 853 809 963 1093 760 785 690 613 611 521 401 304 326 190 142 107 70 93 94 101 170 249 600 1045 1054 1002 1697
493 1151 1582 1804 1984 1929 1888 1934 1937 1803 1665 1638 1527 1353 1175 1087 1071 843 777 590 659 676 524 565 533 491 542 498 327 143 82 0 3 0 12 106 201 389 466 685 773 790 863
505 844 1266 1587 1695 2037 2031 1884 1811 1927 1900 1639 1172 1077 1398 1118 901 772 657 644 890 506 318 259 216 315 424 510 342 149 30 0 21 0 0 29 10 41 194 272 358 513 783
384 528 753 1104 1116 1618 2119 1854 1666 1680 1804 1818 1787 1878 1553 1166 1007 683 594 659 146 139 121 199 289 376 365 466 431 325 56 2 26 3 0 0 0 0 0 88 162 343 428
360 539 789 866 1204 1586 1835 1659 1630 1780 1750 1104 941 1701 1502 1386 583 64 14 2 94 157 92 144 477 413 288 197 280 348 315 288 28 0 0 0 0 0 0 0 2 17 168
503 837 903 1159 1500 1767 1799 1754 1736 1699 934 344 348 1337 1453 20 0 0 0 31 141 54 0 110 36 185 194 277 103 114 74 22 80 0 0 0 0 0 0 0 0 0 34
738 1132 1428 1484 1691 1896 1932 2220 1944 1889 1137 40 613 816 9 0 0 0 19 147 3 0 0 1 11 60 36 136 146 26 0 0 0 0 0 0 0 0 0 0 0 0 0

GFSSE_con_mucape_006.txt.gz
CAPE
126 229 739 1166 935 806 951 883 801 1020 1308 1634 1860 2161 2486 2544 2536 2835 2672 2439 2479 2545 2231 2055 2042 2218 2174 2143 2094 1882 1933 1779 1550 1339 1563 1270 1115 1152 1098 1011 952 937 1209
155 297 1086 1309 995 929 926 1031 1065 1048 1620 2211 2317 2654 2483 2379 2144 2457 2563 2475 2418 2320 2099 1930 2164 2204 1920 1648 1725 1733 1514 1666 1495 1583 1724 1554 1329 995 1175 811 995 491 676
265 347 950 1882 1184 1088 1195 1198 1107 1251 1847 2325 2701 2658 2351 2326 2442 2172 2165 2275 2190 2030 2025 2134 2161 2145 2096 1819 1549 1222 1393 1493 1382 1389 1809 1491 1365 1308 1015 743 940 1010 1032
518 514 773 1685 1669 1344 1440 1937 1669 1539 1946 2444 2667 2907 2652 2581 2331 2203 2159 2036 1942 1972 1972 1979 1895 1766 1811 1812 1800 1610 1374 1141 1431 1310 1400 1309 1061 1350 972 549 1043 887 1000
876 907 1178 1705 1866 1840 1986 2058 2645 2494 2372 2426 2689 2559 2703 2712 2358 2019 1889 1909 1955 1876 1767 1688 1691 1732 1722 1767 1747 1777 1729 1405 1187 1023 1180 1087 1043 1135 995 548 915 496 921
1101 1138 1957 1968 1877 2009 2108 2556 2296 2468 2821 2908 3103 2497 2556 2214 1936 1833 1701 1831 1819 1703 1607 1529 1555 1617 1727 1771 1845 1848 1580 1528 1313 882 990 1063 1249 1209 978 245 699 272 356
1415 1645 1710 2446 2416 2232 2235 2320 2834 2773 2735 2960 2966 2394 2346 2098 2019 1975 1998 1958 1829 1723 1677 1650 1683 1678 1745 1778 2015 1977 1701 1617 1007 857 974 1032 1240 1116 1183 808 759 753 751
1693 1769 1984 2290 2358 2464 2621 2473 2788 2897 2826 3000 2256 2309 2199 2182 2059 1997 1879 1700 1581 1521 1600 1591 1734 1842 2024 2127 2290 1924 1813 1669 1564 1012 1032 1056 1202 1412 1563 1150 712 1058 915
1976 2021 2098 2135 2280 2497 2959 2713 2625 2588 2374 2455 2183 2448 2405 2051 2262 2103 1936 1780 1645 1636 1728 1880 1847 2120 2140 2283 2201 1940 1810 1787 1601 1226 1000 817 1291 1458 1024 1261 835 684 951
2032 2006 2057 2165 2045 2294 2118 2221 2134 2219 1889 2226 2354 2347 2411 2353 2139 1919 1784 2048 1942 1994 2243 2156 1674 1843 2013 1866 1775 1743 1472 1328 1472 1206 1393 845 1095 1431 1424 954 1457 965 770
1818 2011 2080 2097 2112 2189 2371 2096 2070 2201 2044 1998 2017 2201 2326 1695 1575 1881 1375 1634 1774 1725 1877 2051 1721 1713 1893 1555 1354 1406 1415 1567 1312 1352 1241 1144 1516 1361 1744 1082 1321 1102 1008
1422 1828 1935 2000 2166 2208 2682 2160 1917 1743 1769 1856 1835 1794 1741 1402 1390 966 1198 1179 1133 995 1849 1948 1661 1843 1406 1017 895 855 663 777 1329 1417 1109 1248 1522 1270 1462 1199 1297 965 1370
1336 1689 1861 1962 2076 2166 2416 2194 1832 1737 1552 1708 1709 1731 1596 982 808 1091 575 538 668 1291 1190 1254 1018 904 855 809 781 714 717 832 747 800 876 1390 1785 1616 1521 1560 726 1009 1220
1320 1589 1780 1846 1926 1983 1856 1982 1707 1750 1687 1543 1456 1474 1486 990 894 738 540 684 981 912 859 646 706 766 749 601 539 604 731 795 782 720 737 1462 1983 1765 1735 1517 1846 1012 801
1159 1407 1493 1694 1929 1905 1802 1774 1738 1625 1718 1655 1358 1249 1225 972 905 770 656 800 810 716 743 756 844 768 517 502 517 526 511 543 628 600 614 769 2139 2123 1738 1815 1592 1874 1175
1159 1261 1413 1558 1778 1912 1921 1746 1736 1465 1478 1376 1210 1190 1221 1091 1067 860 772 735 700 638 580 731 737 533 208 231 248 259 321 308 357 366 499 631 1140 2148 2407 1823 1808 1726 1816
1253 1288 1424 1552 1889 1812 1820 1523 1202 1381 1203 1275 1290 1115 1335 1289 1232 1145 964 838 685 601 470 396 445 432 372 234 136 115 69 110 191 217 395 627 777 1065 1569 2360 2212 2146 1691
1249 1316 1354 1719 1833 1643 1620 1566 1461 1354 1369 1446 1402 1390 1410 1352 1372 1352 1027 659 606 544 532 528 493 353 265 149 123 139 95 90 133 152 236 362 636 744 1304 1560 2359 2133 1763
1241 1272 1326 1636 1878 1739 1582 1626 1652 1595 1519 1417 1301 1202 1234 1239 1061 908 821 700 633 659 655 523 386 349 297 224 203 298 186 197 187 180 185 204 214 469 568 832 1696 1957 1615
1090 1161 1254 1497 1784 1883 1576 1680 1758 1549 1318 1277 1176 1138 1022 1065 899 712 743 766 803 638 514 370 360 325 281 284 319 255 133 59 72 102 120 224 303 369 451 798 1476 1306 1485
906 1052 1274 1441 1688 1828 1667 1718 1847 1502 1476 1514 1362 1161 1166 939 893 846 783 636 468 466 318 359 319 280 216 247 217 129 44 17 9 0 31 154 0 36 430 928 1164 1358 1236
572 891 1097 1495 1792 1845 1807 1719 1648 1672 1667 1661 1519 1384 1131 938 1001 894 539 338 490 477 182 108 131 143 219 301 171 14 17 44 95 16 25 16 0 0 7 110 331 363 548
461 724 861 1325 1646 1725 1716 1683 1756 1605 1570 1447 1435 1154 1290 1149 916 659 446 434 427 64 46 33 54 144 245 256 217 152 5 4 15 31 19 0 0 0 0 0 8 44 186
416 562 491 874 1277 1457 1537 1793 1823 1570 1420 1361 1316 1456 1549 1163 911 607 24 30 8 8 62 26 156 234 202 61 128 175 99 174 39 9 0 0 0 0 0 0 0 0 30
459 407 390 585 851 1087 1220 1514 1895 1622 1358 946 586 622 1454 1093 1004 0 0 0 9 85 18 0 30 59 85 87 20 14 2 0 21 0 0 0 0 0 0 0 0 0 0
570 458 352 464 588 868 1134 1389 1681 1571 1350 1005 356 485 1305 1233 6 0 0 0 51 38 0 0 0 1 6 33 71 0 0 0 0 0 0 0 0 0 0 0 0 0 0

GFSSE_con_mucape_009.txt.gz
CAPE
132 288 646 651 656 650 651 751 723 1250 1369 2107 2237 2595 2396 2438 2366 2405 2613 2302 2480 2285 2077 2020 2189 2136 2161 2191 2025 2039 1860 1594 1480 1355 1357 1265 1261 1129 1093 740 955 550 1163
313 418 853 1294 922 990 919 800 1246 1157 1868 2140 2379 2558 2211 1896 2013 2230 2241 2286 2391 2138 1856 2065 2118 1931 1706 1598 1632 1738 1607 1623 1298 1672 1537 1256 1187 986 960 865 445 337 985
398 453 777 1522 1142 1114 1105 970 1379 1417 1807 2178 2647 2394 1864 1493 1827 1953 2219 2270 2112 1993 2023 2058 1978 2013 1902 1835 1730 1425 1405 1282 1288 1481 1607 722 947 1043 835 900 979 542 977
563 497 521 1380 1401 1296 1345 1422 1280 1750 1673 2390 2675 2252 2067 1995 1890 1959 2051 1925 1951 2057 1998 1879 1735 1680 1749 1705 1772 1664 1526 1197 1259 1081 791 759 454 1143 635 974 960 1146 1097
866 745 918 1364 1389 1412 1435 1426 1559 2112 1881 1913 2060 2145 2074 2083 2162 2103 1937 1896 1962 1898 1776 1655 1586 1565 1599 1656 1779 1702 1622 1401 1123 1090 1204 1364 649 898 838 662 573 926 755
954 842 1430 1724 1815 1699 1714 1646 1945 2414 2132 2565 2247 2211 2239 2185 1878 1775 1730 1839 1839 1732 1653 1554 1588 1657 1777 1720 1768 1801 1632 1483 1244 1188 1281 1460 1029 915 769 205 695 405 914
994 1254 1562 1955 1867 1841 1998 2125 2611 2547 2148 2610 2284 2150 2178 1994 1946 1877 1992 1978 1864 1740 1640 1620 1646 1735 1781 1872 2088 1919 1840 1497 1464 1347 1201 1414 1409 883 1043 496 573 422 610
1037 1245 1486 1818 1956 2158 2163 2256 2589 2643 2216 2473 2219 2252 2153 2084 2079 2002 1926 1723 1634 1557 1609 1756 1882 2039 2047 2105 2250 1750 1549 1747 1388 1259 1321 1223 1324 1176 1390 1088 842 1034 998
1131 1329 1750 1956 2206 2399 2946 2272 2453 2529 2429 2250 2355 2219 2176 2257 2180 2104 1946 1838 1723 1694 1884 2120 1875 1873 2005 2072 1856 1529 1664 1662 1594 1334 1196 1394 1348 1407 1337 1259 752 889 958
1340 1565 1918 2027 2160 2181 2022 2194 2139 2352 2332 2235 2087 2316 2331 2275 2255 2108 1811 1893 1928 2027 2053 2207 1791 1705 1760 1779 1717 1407 1401 1332 1438 1733 1415 1325 899 1459 1363 1534 979 824 806
1579 1943 1994 1864 2261 2479 2137 2045 2026 2148 2066 2044 2121 2124 2005 1883 1783 1729 1444 1559 1479 1607 1622 2042 1675 1819 1847 1467 1436 1437 1185 1410 1600 1680 1997 1194 1289 1339 1434 1247 1038 1461 688
1307 1670 2026 2202 2151 2090 1472 2121 2262 1641 1514 1653 1994 1917 1855 1916 2088 1662 955 1317 1190 1180 1693 1828 1868 1621 1335 1452 1439 1188 1311 1490 1423 1536 1363 1398 1542 1371 1332 1503 1172 1248 1237
1171 1396 1859 2136 2408 2288 2456 2335 2884 2176 2132 1859 2064 2027 2366 1767 1706 1657 1412 1110 830 1513 1550 1441 1512 1465 1653 1580 1288 1162 1247 1384 1478 1462 1278 893 1539 1535 1350 1541 1576 1441 1017
1105 1378 1565 2004 2405 2454 2575 1968 2316 1739 1901 1620 1816 2253 2482 2399 1609 1598 1296 1442 1943 1593 1671 1580 1512 1715 1531 1254 1073 1077 1161 1065 1017 1269 1397 1067 1548 1957 1563 1420 1591 1661 1083
1069 1543 1794 1972 2303 2473 2376 1893 1830 2153 1497 1546 1957 1840 1736 2243 1938 1759 1572 1667 1769 1514 1492 1559 1638 1613 1401 929 964 947 826 922 985 857 1172 1096 1155 1865 1678 1815 1530 1503 1322
1048 1372 1795 2125 2434 2462 2333 2512 2402 2194 2426 1976 2066 1754 1976 1837 2806 2385 1700 1723 1511 1487 1286 1435 1470 1245 993 1000 795 727 613 474 683 787 602 1152 967 1363 1919 2045 1924 1777 1635
1278 1129 1331 1693 2125 2494 2575 2762 2495 2244 2054 1730 1746 2073 2137 2145 2253 2204 2251 2124 1636 1391 1353 1217 1217 953 845 601 565 420 459 482 314 674 677 732 1025 1127 1362 1639 2469 2518 2060
1417 1353 1234 1108 1457 2027 2235 2536 2151 2165 2149 2044 2955 2608 2027 2160 2267 2332 2700 2268 1386 1427 1184 1271 1166 982 794 535 471 467 556 413 576 599 543 612 506 679 977 1321 1526 2479 2003
1766 1799 1761 1916 2013 2460 2628 2518 2695 2331 2553 2641 2207 2150 2258 2059 2141 2460 2453 1960 1526 1402 1527 1246 972 992 498 372 338 399 436 413 487 321 651 792 796 861 632 687 1056 1319 1647
1736 1931 2066 2022 2384 2766 2999 2779 2898 2694 2724 2545 2154 2019 2006 2031 1874 1787 1837 1727 1550 1482 1213 1003 1092 859 740 684 504 413 403 337 287 384 620 509 226 993 1285 1440 1429 1479 1374
1707 1818 2050 2173 2478 2596 2422 2477 2431 2273 2525 2228 2420 2100 1799 1848 1785 1798 2063 1766 1514 1192 1062 1123 807 700 407 648 682 140 254 285 276 250 366 161 0 51 308 770 1244 1301 1337
1541 1680 2002 2274 2534 2805 2474 2596 2457 2484 2430 2247 2298 2290 2083 1889 1962 1931 1796 1432 1237 917 1104 702 748 433 478 693 477 299 11 250 290 239 121 2 0 0 7 175 233 446 633
1247 1496 1802 2428 2705 2684 2728 2607 2494 2356 2283 2311 2291 2222 2094 2001 1927 1798 1517 1168 1164 684 130 585 462 664 443 566 644 372 25 11 129 207 238 0 0 0 0 1 41 108 19
1090 1175 1642 2141 2631 2603 2790 2501 2566 2281 2242 2228 2096 2045 2114 2099 1800 1655 1405 738 791 273 595 481 372 638 641 228 349 532 419 422 10 0 0 0 0 0 0 0 0 0 0
993 1033 1225 1973 2486 2537 2702 2917 2613 2579 2369 2186 1611 1846 2350 2095 1770 1250 748 522 528 466 704 321 631 471 415 276 249 242 211 107 136 0 0 0 0 0 0 0 0 0 0
783 911 1133 1889 2371 2242 2341 2641 2681 2646 2580 1949 1284 1017 1348 1548 1089 632 301 383 623 662 536 237 384 397 374 447 440 217 0 0 0 0 0 1 0 0 0 0 0 0 0

GFSSE_con_mucape_015.txt.gz
CAPE
223 391 625 598 617 634 612 744 1553 2194 2547 2795 2931 2871 2749 2515 2874 2726 2755 2139 1977 2085 1928 1863 1739 1667 1629 1661 1692 1810 1570 1447 1696 1386 1358 1283 1233 1217 537 566 756 694 1417
405 419 909 853 890 787 911 826 1076 1780 2476 2681 2692 2629 2461 2257 2182 2432 2266 1929 1929 1935 1848 1835 1781 1710 1674 1693 1567 1545 1497 1451 1454 1420 1183 1232 1264 843 676 747 658 923 943
423 502 646 999 1012 1081 1168 1542 1603 1434 1913 1918 2131 2220 1791 2034 2308 2093 1977 1991 1998 1910 1739 1644 1588 1612 1617 1635 1596 1558 1360 1112 963 1121 1060 1260 822 800 1005 862 983 1155 1272
276 497 509 1321 1166 1207 1119 1186 1606 1134 1301 1423 1711 1640 1601 1822 1997 1813 1726 1828 1795 1783 1670 1517 1435 1567 1691 1675 1666 1606 1439 1235 902 1064 1561 644 539 731 1175 1001 1285 1405 1358
360 636 856 1252 1068 1179 1384 1331 1733 1480 1350 1384 1497 1544 1616 1883 1930 1658 1680 1733 1673 1609 1486 1459 1580 1616 1716 1782 1824 1735 1525 1285 998 1280 1498 553 775 632 768 868 1085 1085 868
333 547 1115 1351 1263 1330 1498 1813 1645 1727 1787 1413 1427 1626 1974 1988 1646 1554 1730 1579 1468 1471 1544 1585 1658 1712 1786 1870 1973 1600 1572 1388 1308 1319 1818 477 495 665 778 812 962 1282 1117
917 748 733 1682 1468 1549 1660 1961 2032 1952 1845 1582 1626 1940 1988 1819 1688 1751 1629 1376 1366 1511 1670 1886 1805 1812 1757 1843 1751 1463 1388 1566 1726 1703 1493 1765 746 998 697 672 605 1222 1157
1163 815 989 1637 1720 1713 1824 1993 1710 1725 1763 1884 1929 2021 1907 1928 1814 1728 1375 1400 1433 1492 1719 1936 1581 1586 1643 1594 1445 1355 1490 1547 1767 1797 1442 1861 1315 1398 905 975 583 530 1312
1062 1152 1475 1570 1984 2069 2134 1954 1844 2013 2040 1971 1950 1975 1918 1968 1791 1681 1611 1352 1545 1720 1969 1879 1511 1565 1603 1457 1458 1370 1538 1579 1953 2185 1708 1526 1828 1279 1544 999 1381 1120 1128
1231 1154 1441 1554 1548 1667 1940 2032 1943 2051 1811 1587 1824 1793 1755 1973 1865 1507 1455 1558 1514 1552 1537 1763 1476 1578 1565 1626 1519 1500 1584 1817 2016 1708 1840 1630 1859 1488 1601 1255 1180 1322 1244
1204 1202 1140 1199 1367 2011 1903 2308 2149 1945 1538 1562 1693 1832 1666 1542 1824 1979 1728 1327 1363 1469 1352 1597 1467 1661 1563 1656 1516 1650 1858 1753 1332 1316 1883 1709 1644 1672 1655 1656 1052 907 1263
1192 1330 1317 1525 1316 1254 879 1643 1311 1001 967 1020 1045 1625 1136 1847 2102 1389 1443 1430 1310 1361 1407 1532 1609 1742 1958 1923 1908 2097 1267 1063 1580 1687 1622 2229 1682 1691 1761 1954 1411 1577 957
1199 1433 1459 1814 2107 1200 2070 1253 1448 1433 1330 1211 1470 1432 1220 1592 1712 2117 1613 1933 1959 1574 1661 1832 1701 1980 1772 1235 1172 1075 903 1002 577 1546 1838 1935 1335 1540 1765 1885 1969 1608 1776
1347 1164 1043 1551 1602 1360 1532 1284 1176 1059 979 1048 1357 1725 1979 1722 1987 1718 2350 2009 2350 2135 1780 2130 1937 1973 1381 1326 1179 1129 901 695 487 518 1979 2017 1261 1667 1815 1857 2061 1777 1728
1082 1157 1095 1365 1899 1799 2003 1261 1544 1066 1007 1005 1121 1679 1585 1405 2271 1610 1494 1652 1953 1877 1673 1894 2159 1936 2025 1633 1509 986 739 421 356 260 534 2075 1490 1366 2010 1944 1993 1907 1951
1099 1168 1231 1555 1929 2012 2350 2182 1585 1960 1625 1034 1937 1300 1748 1638 2386 2921 2808 1451 1467 2274 2171 2069 1991 2031 2309 1997 1286 955 205 138 44 55 94 1309 1995 1381 1886 2021 1998 1920 1916
1135 1260 1347 1495 1812 2088 2168 2155 1840 1430 1186 1664 1304 1510 1989 2073 1946 2351 2031 1616 2226 1913 2133 1855 1680 1817 1746 1385 233 75 9 28 24 121 128 79 1213 2104 2095 2074 2226 2418 2239
1042 1267 1434 1303 1494 1941 2472 2372 1939 1473 2031 2044 1542 2218 1932 2326 2338 2321 1806 1792 2055 2041 2054 2314 1622 1888 865 123 8 6 5 28 163 180 101 171 130 242 2075 2392 1733 2052 1927
1075 1306 1516 1592 1521 1976 2895 2358 2244 2853 2687 2007 2176 1413 2718 2215 2382 2488 2042 1782 1997 1725 2228 1746 1721 950 117 5 0 0 30 102 109 110 69 226 494 426 399 2297 2149 1641 1710
1118 1389 1633 1604 2279 2647 3808 2871 2863 1835 2064 1879 1658 2154 2243 2122 2147 2383 1702 1833 1915 2212 1868 2020 876 355 133 59 0 1 52 165 142 136 190 152 191 527 813 776 1526 1274 1519
1175 1564 1937 2460 3670 2634 1982 2686 2118 1906 2163 1524 1369 2007 2571 2308 2338 2033 2165 2289 2025 1739 1576 723 373 22 1 136 36 126 123 166 248 101 129 9 1 78 412 755 1561 1847 1726
1283 2042 3020 3252 4003 3521 2480 2875 2565 2083 1415 1364 1221 2150 2007 2195 2546 2035 2623 1661 2085 1151 1101 442 126 22 7 301 132 12 54 528 340 100 75 4 0 3 70 396 773 1321 1580
1431 2121 3206 4019 4280 3988 3735 3138 2831 3269 2326 1745 1284 1988 2097 2085 2041 2181 2104 2176 1786 993 87 320 181 86 44 82 187 100 71 186 130 288 116 3 0 0 0 0 47 9 134
1426 1814 3184 4014 4325 4024 4221 3026 3582 2234 1478 877 1110 901 1588 1557 1450 2181 1835 1206 1109 400 1059 321 90 235 172 69 11 27 163 148 133 190 69 3 0 0 0 0 0 0 0
1159 1441 2529 4175 4430 4485 4462 3650 2669 2904 1146 1007 811 1960 1808 2312 1216 1004 1030 1255 723 10 255 487 119 298 273 81 11 23 109 20 0 1 14 43 32 3 0 0 0 0 0
965 1323 2316 4154 4608 4573 4535 4404 4413 4341 2713 1483 1686 1416 835 781 1118 1109 1062 1065 403 396 463 353 244 191 246 298 203 73 9 11 23 18 13 30 36 31 23 4 6 0 0

GFSSE_con_mucape_021.txt.gz
CAPE
61 126 371 424 445 916 1407 2475 2867 2874 2938 3040 3091 3107 2982 2806 2633 2857 2890 2647 2403 2482 1967 1745 1630 1553 1574 1647 1493 1444 1729 1312 1306 1133 1150 787 385 707 863 755 1423 1266 958
51 136 657 891 884 1534 2281 2342 2653 2720 2882 3009 3036 2959 2888 2474 2119 2660 2727 2211 2194 2412 1712 1709 1595 1572 1533 1443 1411 1355 1443 1474 1221 1266 1163 504 561 844 1168 1308 1132 932 680
94 280 425 1106 1312 1444 1732 2337 2401 2443 2770 2940 2948 2975 2755 2174 2272 2450 2103 1931 2161 1929 1581 1632 1682 1644 1552 1513 1373 1195 1177 976 1074 808 812 438 668 813 1035 1070 1449 1116 1041
135 154 544 1307 1614 1559 2013 2467 2382 2147 2055 2643 2813 2905 2773 2317 2445 2148 1792 1740 1640 1592 1507 1578 1567 1665 1629 1565 1496 1330 1164 983 931 1086 1017 706 570 669 1332 1487 1327 1098 783
152 227 657 1585 1936 1731 1877 2378 2375 2296 1979 2251 2510 2849 2700 2419 1910 1699 1598 1506 1484 1540 1589 1642 1608 1569 1667 1715 1483 1400 1282 1192 1398 1318 854 151 410 978 1357 1351 1344 1369 1474
310 737 1659 1853 1426 1957 2000 2195 1846 1999 2142 2381 2551 2835 2550 2267 1713 1537 1337 1345 1381 1539 1773 1666 1681 1575 1645 1640 1429 1297 1357 1444 1336 1139 234 429 552 1230 1036 1325 1301 1423 1275
471 890 1308 2238 2241 2266 2060 1957 2286 1837 1854 2425 2746 2652 2558 2241 1722 1395 1222 1193 1275 1471 1751 1552 1409 1497 1447 1532 1348 1232 1278 1454 932 736 884 409 981 1675 1499 1418 1200 1245 1410
524 896 1187 1932 2152 2538 2066 1947 2151 1900 1814 2455 2654 2547 2468 2377 2204 1734 1215 1219 1248 1484 1705 1650 1297 1496 1385 1293 1307 1320 1350 1183 991 860 640 642 1288 1300 929 1109 1103 1348 1371
406 651 1069 1375 1589 2211 2751 2284 1992 2038 2110 2388 2550 2397 2212 2060 1586 1533 1409 1237 1310 1448 1433 1544 1299 1397 1532 1433 1653 1735 1461 788 255 427 760 522 1815 1057 391 808 1252 1126 1339
496 762 1035 1305 1393 1828 1776 1922 1847 2020 1908 1926 2058 1772 1744 1617 1577 1362 1768 1619 1305 1212 1279 1395 1535 1622 1804 2016 2076 1553 1641 740 115 93 434 263 1384 1418 1247 854 986 895 1044
735 794 1039 1206 1382 1574 1323 1505 2011 1874 1812 1824 1752 2028 2088 1381 1248 1568 1685 1776 1280 1380 1305 1427 2126 2301 2325 2692 1927 1759 1471 580 382 23 465 1253 1767 1560 1148 1497 1276 1205 1187
806 966 1000 1041 1212 1228 1292 1482 1562 1406 1211 971 1151 1111 1392 1053 738 1553 1749 1991 1362 1482 1748 1932 2194 2349 2216 1433 1560 1781 1328 858 500 160 255 642 2191 1989 1515 1141 1196 1343 1445
807 1010 1060 1194 1280 1070 1031 1101 1293 1266 860 503 643 990 1019 1103 828 798 864 814 1003 1399 991 1277 1597 1506 1261 1437 883 553 460 820 779 688 513 1249 2225 2093 2047 1394 1323 1073 1446
731 834 936 1157 1251 1055 1258 1070 1095 1029 630 603 889 1498 1501 1345 747 1000 1239 798 1070 1354 1128 1312 1311 1103 1305 965 752 488 262 900 1078 829 602 1637 1976 2397 2232 2190 1664 1669 1201
675 758 862 997 1012 1313 1027 480 803 853 897 961 1166 1598 983 1185 889 680 1557 1121 1301 1128 1285 1083 1509 1153 1218 1282 1049 560 191 0 263 956 1063 2322 2071 2531 2311 2248 1744 1856 1951
765 837 1072 1087 1050 1081 959 1254 1242 1025 1162 1211 1646 1295 1251 1155 1083 1389 1383 1094 1449 1362 1744 1445 1109 1130 1204 1473 1392 1025 637 18 12 258 989 1393 2198 1938 2538 2358 2388 2015 1981
891 866 1142 896 1664 1628 996 1903 1695 1493 681 516 1351 1555 1481 1605 1331 1554 1486 1146 1685 1472 1667 1599 1047 1188 1325 1253 1101 829 115 4 12 13 305 1128 1313 1808 2071 2807 2712 2473 2135
602 1114 1238 1474 1655 1937 1346 1975 1360 1071 1432 1116 1009 1633 1578 1627 1775 1318 1759 1705 1270 1237 1031 992 895 918 872 399 0 0 1 10 26 22 13 235 963 1072 1874 2389 2263 2459 2182
1003 1296 1272 1295 1063 1238 1708 2158 1360 1069 1608 939 1602 1423 1858 1937 1777 1381 1639 1532 1501 1284 1198 1092 752 554 47 0 0 0 3 75 23 54 37 19 167 856 1095 1970 2149 2091 1816
1095 1158 1046 1201 1122 1063 1953 1941 1652 1410 1701 1637 1402 992 879 1692 1861 1427 1324 1649 1287 1126 1084 639 499 328 10 26 0 2 4 14 10 122 59 26 63 896 1133 1067 1070 1145 1809
1265 1081 1238 1329 1492 1280 1804 1776 2052 1688 1737 1412 1130 1475 1578 1555 1735 1397 1307 1393 1616 1148 974 484 189 23 0 27 0 26 76 78 33 27 25 28 7 670 885 902 1033 979 1139
1107 1068 986 1393 2439 1577 1581 1793 1784 1567 1644 1720 1789 2050 1831 1761 1787 1427 1199 1423 1387 1326 875 370 53 0 19 145 0 1 62 69 97 37 20 17 1 19 401 473 512 546 901
829 1201 1203 1303 2311 2184 1913 1694 1586 1566 1701 1576 1668 1607 1832 1871 1941 1617 1508 1414 1427 1104 759 479 6 34 9 154 0 9 91 54 104 44 38 10 0 0 0 0 0 337 582
768 1305 1277 1486 2355 1800 1895 1570 1603 1309 1301 1398 1530 1817 1954 1831 1634 1594 1505 1427 1084 965 615 59 61 24 76 13 102 1 0 7 19 87 23 12 6 0 0 0 0 1 341
805 1089 1555 1574 1747 1811 2120 1498 1402 1351 1010 1336 1483 1468 2194 1882 1740 1596 1601 1536 874 465 352 135 0 0 116 209 80 246 1 7 3 1 13 16 29 5 0 0 0 0 52
860 1219 1825 1789 1763 2202 1484 2031 1712 1920 1552 1424 1266 1841 2070 1601 1353 1860 1597 1238 776 367 222 113 146 34 23 84 6 33 0 0 0 0 0 0 8 12 11 8 4 0 0

GFSSE_con_mucape_024.txt.gz
CAPE
56 82 347 433 559 1073 1820 2123 2502 2997 3087 3079 2996 2794 2496 2245 2434 2388 2412 1977 1989 1851 1705 1701 1679 1709 1738 1490 1330 1679 1416 1523 1205 1152 650 387 984 988 1139 1452 1504 624 500
23 101 689 684 1059 1693 2084 2506 2770 2962 2880 2954 2906 2554 2147 1952 2038 2078 2095 1929 1837 1725 1709 1713 1669 1689 1615 1551 1513 1634 1527 1409 1542 1211 564 429 882 1058 1111 1534 1220 433 1103
38 211 517 981 1416 1756 2424 2641 2583 2636 2416 2897 2869 2319 2008 2020 2090 2027 1901 1809 1739 1603 1615 1750 1823 1694 1664 1570 1444 1362 1166 1091 1210 831 675 487 617 1117 1517 1199 818 1100 1320
144 282 535 1147 1502 2020 2247 2558 2655 2299 2068 2778 2556 2283 1982 2079 2038 1853 1791 1666 1546 1583 1619 1625 1683 1748 1684 1614 1540 1360 1229 1078 1036 1112 636 618 273 1166 1247 1393 1001 933 1148
199 457 699 1434 1933 2067 2157 2420 2501 2318 1879 2155 2047 1805 1795 1857 1783 1621 1525 1485 1586 1667 1730 1703 1625 1637 1725 1625 1549 1355 1139 1390 1284 1345 863 453 508 1356 1387 1316 810 1349 1432
169 590 1289 1560 1401 1931 1946 2070 1776 1790 1711 2017 2273 1869 1758 1800 1572 1386 1392 1424 1578 1806 1843 1643 1622 1578 1622 1651 1438 1394 1649 1306 649 327 147 697 828 1186 1072 1439 1419 1330 1311
323 672 1084 1983 2069 1949 1950 1747 1902 1647 1603 2080 2210 1783 1715 1732 1428 1323 1290 1355 1487 1668 1847 1466 1500 1443 1552 1610 1479 1226 1680 1537 385 316 477 667 1118 1858 1723 1435 1293 1265 624
665 1079 1319 1731 2103 2105 1689 1653 1658 1488 1679 2148 2108 1914 1762 1760 1481 1285 1276 1293 1391 1635 1728 1634 1401 1552 1443 1409 1435 1971 1837 1207 677 433 877 909 1609 1902 1512 1470 1143 1243 641
856 1192 1363 1328 1183 1671 2226 1813 1689 1481 1645 1940 1936 2070 1940 1658 1537 1206 1215 1299 1419 1537 1550 1619 1387 1444 1459 1415 1816 1796 1018 224 96 646 929 346 1901 1363 1210 1208 1360 1411 908
784 1025 1360 1409 1405 1713 2034 1995 1909 1697 1725 1867 1964 1861 1789 1769 1587 1460 1599 1679 1481 1370 1329 1436 1599 1641 1514 1444 1540 1578 939 492 290 241 464 447 1145 590 701 1411 1312 1410 1175
524 913 1265 1331 1627 1799 1768 1653 2045 1826 1816 1885 1840 1867 2099 1313 1254 1619 1713 1789 2075 1521 1481 1449 1741 1858 1806 1772 745 1161 1595 457 319 196 705 1067 1089 1423 1222 786 1420 939 1244
595 703 1089 1304 1473 1428 1401 1318 1466 1443 1483 1387 1380 1298 1526 1053 944 1351 1689 2095 1773 1634 1752 1772 1901 2107 1634 1228 1319 2028 839 532 259 149 269 1157 1595 1681 1329 1696 1313 1335 1421
652 773 852 1021 1193 1154 1067 1305 1342 1179 1047 782 655 688 762 849 785 1196 906 1306 1301 1466 794 1063 1447 1032 1225 1079 699 380 949 849 375 352 233 933 1697 1889 1655 1396 1603 1512 1506
697 877 851 856 921 906 784 1253 1053 902 729 330 293 647 796 939 669 564 866 864 857 1172 1143 1227 1269 1135 1140 916 753 237 680 618 693 399 239 1403 1959 2053 1606 1602 1420 1544 1666
789 906 871 903 925 801 859 615 578 840 630 381 420 589 980 1086 777 686 981 1027 988 899 1044 1022 1154 1023 1002 1291 926 440 143 513 863 714 253 1330 2252 2555 2084 1912 1724 1603 1477
793 902 923 906 964 769 1001 787 500 596 643 540 659 765 1028 952 762 714 1081 1103 1275 1269 1138 1181 1043 922 1208 1159 1381 1175 556 63 945 670 542 1461 2139 2405 2514 2615 1967 1835 2042
713 780 802 918 939 812 902 827 386 598 804 888 853 1027 1135 1137 1021 1353 1284 873 1326 1275 1513 1104 862 717 934 508 334 176 89 11 43 457 695 853 1224 2083 2261 2549 2355 2050 1882
671 725 736 759 830 1006 841 653 1524 1110 732 686 1016 1118 1169 1043 1056 1170 1223 1380 1136 1029 988 836 759 630 323 8 0 0 3 18 29 28 574 473 1012 856 1804 2282 2744 2487 1716
559 653 730 676 704 1130 767 1188 1077 1051 961 846 886 1226 1084 1196 1411 1065 1177 1164 1248 1134 1075 897 655 311 51 1 0 0 13 41 33 25 28 147 667 775 711 1522 1940 2090 1767
587 769 808 668 839 1232 1068 1492 1023 751 803 1110 1158 1112 1280 1496 1506 1200 1021 1237 1244 1116 977 610 314 286 2 0 0 0 14 16 28 41 48 119 341 541 904 843 857 1000 1475
512 876 846 883 908 1412 1261 1308 1255 934 963 1168 1173 926 1242 1426 1327 1149 889 1310 1115 969 707 311 134 5 0 6 0 0 39 24 40 50 38 83 419 719 907 751 903 981 1349
814 948 907 877 808 915 1057 1114 1251 1133 1092 1146 1285 1007 796 1064 1429 1277 1164 1073 1217 1024 975 365 149 0 0 25 0 0 14 16 21 25 27 157 263 609 400 504 470 546 402
815 881 900 902 899 893 965 1266 1395 1272 1420 1423 1421 1476 1669 1421 1443 1496 1165 969 1072 1129 787 438 31 0 0 16 0 0 16 0 40 14 11 24 110 196 148 185 266 497 266
612 786 784 1046 1132 1007 1045 1340 1309 1363 1360 1186 1286 1378 1623 1458 1467 1396 1088 930 1013 1054 671 513 12 8 0 0 0 0 0 0 1 3 9 1 0 0 0 0 6 483 120
469 621 667 988 1605 1376 1228 1204 1318 1187 1053 936 1109 1262 1390 1606 1437 1304 1122 961 921 789 628 206 14 15 9 1 9 11 3 0 0 0 0 0 0 0 0 0 0 158 134
340 666 676 700 1512 1604 1426 1285 1227 1173 1016 817 962 1132 1481 1453 1427 1277 1302 1275 992 532 331 41 7 4 53 28 25 70 0 0 0 0 0 0 0 0 0 0 0 0 73

GFSSE_con_mucape_027.txt.gz
CAPE
53 142 412 436 432 1179 1637 2013 2719 2855 2833 2710 2653 2323 2120 2184 2143 1965 1912 1905 1889 1804 1761 1760 1816 1712 1409 1573 1460 1507 1403 1278 1001 590 499 1181 1132 1392 1299 1374 778 468 1249
28 109 443 639 1183 1507 1676 2429 2660 2810 2485 2418 2324 2059 1980 1837 1990 2068 2052 1848 1787 1762 1732 1703 1799 1724 1595 1505 1532 1497 1661 1403 1071 550 360 960 958 1034 1420 1368 518 441 795
46 201 648 1198 1245 1666 1756 2390 2436 2245 2156 2209 2031 1877 1887 1900 1944 1892 1838 1803 1663 1622 1628 1867 1763 1755 1637 1441 1272 1332 1213 1064 950 726 783 534 711 1531 1514 859 859 1383 1280
113 216 582 1357 1568 1730 1853 2394 2468 2115 2179 1992 2016 2005 1969 2004 1882 1778 1747 1566 1557 1626 1638 1635 1751 1739 1678 1577 1286 1284 1288 1256 1194 912 494 423 728 1417 1170 820 882 1197 1295
209 440 737 1327 1572 1740 1831 2116 2466 2218 1957 1852 1854 1943 1982 1879 1727 1597 1525 1586 1628 1718 1739 1700 1659 1719 1779 1534 1320 1025 1208 1342 1536 1239 388 240 774 1243 1492 800 805 1475 1345
320 588 1028 1464 1560 1754 1736 1817 1795 1856 1919 1862 1714 1837 1904 1713 1511 1434 1463 1590 1723 1876 1672 1613 1592 1681 1702 1500 1334 973 1590 1244 1284 1093 364 752 970 1394 1374 1001 1486 1419 1553
509 754 1069 1758 2079 1959 1698 1617 1545 1585 1984 2029 1842 1799 1851 1570 1376 1378 1386 1486 1615 1827 1811 1492 1626 1463 1579 1434 1210 1299 1618 863 211 318 469 668 905 1484 1451 1347 1401 1224 1513
501 879 1126 1604 1714 1828 1702 1656 1587 1543 1901 2063 1866 1798 1834 1657 1396 1395 1364 1390 1519 1764 1722 1567 1515 1555 1315 1211 1663 1892 1835 1296 492 523 611 882 1426 1653 1517 1375 1197 596 1184
816 1040 1169 1084 1236 1611 1720 1671 1562 1549 1887 1966 1997 1867 1765 1786 1511 1373 1346 1381 1456 1438 1577 1617 1387 1418 1364 1253 1590 1735 1658 1106 266 422 716 846 2016 1865 1559 1167 1183 839 888
1043 1173 1220 1086 1053 1365 1402 1705 1547 1516 1683 1932 1936 1937 1883 1733 1491 1468 1465 1482 1527 1389 1340 1467 1361 1474 1411 1630 1532 1849 776 466 187 421 430 574 1920 1272 1103 1325 1223 1368 624
951 1204 1306 1144 1054 1537 1640 1539 1685 1580 1645 1788 1868 1885 2158 1512 1295 1598 1647 1781 1839 1581 1505 1506 1491 1515 1761 1679 952 1711 1407 422 2 180 546 714 1599 753 938 1425 1244 1463 1205
662 1082 1280 1288 1291 1559 1803 1517 1596 1354 1344 1601 1621 1546 1754 1030 765 1228 1702 1967 1665 1686 1727 1860 1613 1791 1303 1033 1164 1689 1751 348 28 132 346 1164 1555 1415 1083 979 1482 1138 1300
525 814 1080 1224 1441 1421 1453 1431 1490 1364 1377 1440 1392 1153 1094 946 827 1002 1092 1388 1025 1435 784 1010 1198 917 1266 835 562 415 862 546 207 152 71 886 1616 1876 1529 1643 1369 1345 1547
458 563 914 1023 1264 1346 1108 1210 1294 1209 1202 1006 650 467 511 665 713 800 844 758 717 901 1026 1016 1092 1090 925 979 600 325 704 571 367 195 59 917 1876 1944 1514 1481 1676 1560 1579
481 500 674 854 943 1120 792 922 1073 968 844 641 290 481 705 901 935 402 703 873 782 830 1139 961 1064 1031 743 1057 777 158 385 298 332 440 137 1225 1895 2231 1840 1533 1566 1607 1830
549 593 646 657 657 824 537 375 781 640 531 349 424 487 668 927 1101 549 785 1130 1081 1302 1035 1193 1116 791 996 1050 1083 917 253 210 419 670 419 282 1881 1833 2548 1898 1674 1606 1580
637 678 678 620 612 644 471 495 217 180 383 478 385 541 717 876 1002 722 896 993 1126 1172 1252 1144 807 633 751 91 10 2 12 178 28 921 502 435 998 1831 1601 2480 2605 2204 1402
644 725 697 776 681 636 575 662 502 283 521 618 664 759 768 960 960 871 1044 905 1081 1258 1146 919 669 398 264 52 1 0 1 17 24 793 526 607 802 840 1269 1856 2455 2104 1670
617 680 685 756 760 671 584 719 792 1097 1011 713 754 846 937 1062 926 1013 1066 1253 1073 993 1049 930 571 202 118 6 0 0 20 27 34 28 164 126 502 728 485 1170 1752 1987 1572
613 606 662 687 714 717 530 570 722 1309 926 665 771 974 966 1036 1186 1177 994 1038 1120 1111 1087 817 360 189 0 0 0 0 16 17 47 55 77 55 137 520 599 541 683 784 1483
541 649 545 607 602 614 739 670 695 987 914 798 899 887 1063 1022 1181 1271 1124 979 1156 1094 940 422 272 0 0 0 0 1 16 11 34 50 27 202 639 772 652 555 507 1046 971
487 477 487 569 541 529 724 741 892 985 642 652 979 1040 920 1090 1277 1272 1133 1048 1074 1021 550 318 150 21 0 0 0 0 0 0 22 33 34 297 338 625 580 591 703 593 510
463 391 491 529 483 518 691 821 1008 947 832 864 862 1034 1047 918 1105 1297 1161 981 1043 1033 874 655 212 0 0 0 0 0 0 0 0 10 38 123 350 391 212 252 243 266 139
410 413 511 525 548 593 721 955 924 767 656 887 1055 1176 1188 1349 1021 1153 1217 1216 891 993 922 629 308 0 0 1 1 0 0 0 0 0 0 12 53 84 38 37 145 302 103
341 416 577 587 585 636 707 781 812 699 669 927 1062 1222 1219 1325 1445 1278 1338 1054 805 913 999 602 331 9 3 1 0 0 0 3 0 0 0 0 0 0 0 0 0 202 122
361 563 565 568 618 672 717 640 729 815 841 850 1002 1037 1050 1199 1419 1321 1339 954 751 799 759 568 181 8 9 0 4 8 0 0 1 0 0 0 0 0 0 0 0 0 209

GFSSE_con_mucape_030.txt.gz
CAPE
164 184 514 474 794 1289 1374 1954 2692 2870 2870 2823 2631 2397 2096 2270 2054 1783 1838 1842 1786 1783 1809 1865 1519 1332 1550 1387 1588 1223 1192 980 593 551 972 994 1486 1296 1506 837 923 1341 1811
66 203 593 620 1374 1562 1681 2438 2552 2589 2492 2520 2555 2300 1929 1811 1957 1914 1760 1770 1846 1828 1676 1793 1678 1481 1436 1410 1549 1536 1398 1167 590 250 1070 1107 1151 1136 1353 573 617 973 1615
12 172 305 1319 1602 1761 2437 2520 2329 2068 1956 2143 2164 1917 1806 1863 1767 1699 1780 1677 1604 1615 1893 1759 1736 1699 1571 1298 1305 1321 1278 1006 785 558 1091 708 888 1397 1139 629 1155 833 1159
62 248 321 1630 1930 1897 2254 2311 2463 1817 1845 1902 1928 1970 1965 1848 1732 1687 1560 1516 1626 1686 1589 1693 1743 1667 1616 1296 1169 1237 1221 1126 1008 649 641 631 1259 1257 865 1351 1413 1390 1416
135 287 702 1499 1942 1803 1805 2005 2547 1978 1930 1920 1915 1969 1905 1743 1631 1502 1496 1609 1668 1787 1714 1639 1710 1775 1559 1340 988 1011 1278 1399 1471 668 254 550 1009 1385 1013 907 1161 1403 1484
291 571 1345 1631 1640 1910 1778 2066 2119 1792 1738 1766 1882 1906 1777 1593 1460 1447 1517 1640 1828 1841 1631 1583 1569 1630 1525 1333 1114 1278 1436 1236 1515 570 228 1195 1038 1562 667 1433 1557 1576 1573
446 811 1231 2135 2064 1999 1751 1906 1868 1861 1823 1726 1817 1879 1666 1470 1399 1379 1400 1535 1706 1912 1746 1615 1463 1457 1397 1298 1101 1173 1237 1260 978 500 693 848 1125 1707 1371 1582 1519 1650 1618
609 885 1107 1787 1871 1832 1613 1594 1594 1834 1945 1806 1733 1820 1697 1451 1428 1388 1350 1409 1655 1749 1742 1453 1568 1457 1232 1208 1502 1674 1143 760 485 659 791 868 1475 1665 1453 1416 1005 1505 1617
665 920 1028 1134 1477 1643 1664 1565 1518 1658 1933 1907 1847 1782 1818 1604 1386 1391 1355 1425 1473 1460 1587 1437 1383 1397 1344 1282 1604 1614 1640 1068 398 847 834 1027 1931 1785 1521 1003 890 657 1528
793 898 993 1027 1196 1331 1404 1614 1487 1602 1873 1911 1940 1841 1698 1681 1471 1488 1471 1487 1719 1474 1367 1490 1355 1513 1467 1495 1588 1662 1109 784 377 785 680 953 1728 1634 1603 1311 1471 662 1135
934 984 962 959 1012 1167 1254 1332 1500 1505 1621 1815 1782 1851 1671 1501 1305 1586 1849 2011 1867 1673 1501 1530 1462 1566 1722 1782 1468 1625 1212 322 162 346 641 746 1660 1296 1147 1643 1542 984 1024
663 963 999 957 951 1222 1507 1312 1290 1122 1232 1316 1571 1557 1688 1332 656 1450 1902 2244 1738 1718 1449 1696 1776 1557 1314 1313 1375 1519 1223 463 11 181 434 809 1525 995 1119 1628 1327 1591 1402
498 841 999 978 958 1256 1539 1467 1386 1264 1229 1255 1377 1370 1098 1086 751 777 1108 1098 826 1286 1145 790 1059 918 1271 841 445 398 886 369 57 4 15 1088 1395 1546 1300 1095 1612 1233 1383
471 673 975 1010 1030 1145 1387 1475 1337 1275 1182 1125 1102 983 615 388 483 707 886 709 656 738 1173 1247 1100 1074 800 995 430 444 624 310 217 151 2 804 1517 1686 1467 1687 1392 1398 1478
349 570 878 955 1047 1084 1156 1241 1156 1146 1027 915 767 427 411 630 760 734 602 702 728 741 945 1062 1201 1003 635 949 635 172 323 175 306 244 158 756 1468 1916 1561 1594 1864 1629 1566
263 393 649 804 893 1043 975 942 907 931 782 690 536 223 441 662 793 887 555 734 1093 1040 1176 1135 1067 932 931 924 1163 760 212 200 271 515 502 238 1679 1828 2031 1543 1503 1612 1593
277 266 460 592 685 824 856 706 506 594 523 425 343 482 412 570 673 946 602 776 937 1066 1050 1116 789 662 494 162 18 0 14 109 102 772 683 336 777 1343 1791 1983 1756 1658 1576
357 382 420 518 484 483 588 518 189 186 281 342 326 489 486 546 670 839 721 787 895 976 1083 998 717 371 229 117 24 2 0 11 9 371 686 559 835 925 1011 1566 2320 1931 1281
419 502 547 463 430 368 320 262 254 131 148 283 404 482 635 621 620 824 787 863 889 914 918 869 548 235 84 0 0 9 14 28 24 78 294 626 417 962 632 813 1462 1566 1312
473 529 583 502 493 387 287 272 295 385 490 882 848 536 689 804 854 875 864 916 987 893 888 893 405 123 0 0 0 0 6 18 36 50 49 21 144 922 711 735 1135 975 1167
496 496 606 569 548 515 375 349 369 519 705 1027 609 616 738 856 995 853 906 939 900 971 1000 742 231 102 0 0 0 0 5 5 26 39 49 236 706 719 698 646 740 1254 1187
481 460 512 571 545 580 445 324 386 432 610 1049 733 731 748 846 954 942 1017 1011 811 897 852 504 202 92 0 0 0 0 0 7 19 23 44 271 497 581 608 624 702 674 646
336 406 432 487 547 552 516 417 495 535 584 844 784 702 889 810 1020 1035 1041 1079 939 866 825 406 298 123 0 0 0 0 0 0 4 10 32 156 241 345 220 308 386 221 115
411 369 312 348 462 480 478 462 546 625 619 610 726 565 740 867 833 1079 1244 1128 1028 920 847 703 519 185 0 0 0 0 0 0 0 0 9 29 147 147 50 24 188 365 38
476 500 426 330 375 384 415 456 464 544 613 621 637 592 693 884 958 971 867 1097 1093 1036 839 764 564 250 0 1 0 0 0 0 10 0 0 0 0 1 0 0 1 224 135
292 318 347 355 317 290 323 443 474 494 505 572 479 614 858 1035 1146 1259 1272 1218 1186 889 711 761 651 347 3 0 0 1 0 0 2 9 0 0 0 0 0 0 0 0 206

GFSSE_con_mucape_033.txt.gz
CAPE
224 400 603 661 854 1188 1902 2144 2488 3030 3059 2867 2491 2054 2163 2158 1812 1780 1782 1728 1801 1933 1842 1546 1523 1622 1458 1634 1265 1265 1024 710 635 871 1261 1409 1174 1219 905 1387 1515 1241 1830
227 374 632 817 1122 1445 1880 2118 2499 2899 2636 2432 2493 2308 1861 1746 1829 1770 1681 1829 1914 1706 1745 1714 1498 1509 1434 1581 1354 1458 1233 782 324 983 1070 1207 1255 1259 696 748 969 1616 1736
147 295 501 1278 1580 1661 1873 2650 2680 2455 2245 2453 2226 1739 1784 1849 1727 1754 1679 1593 1569 1603 1742 1501 1698 1623 1247 1272 1433 1290 1107 964 491 940 856 730 815 1121 467 625 1086 1505 1642
162 236 593 1354 1975 1946 2330 2684 2577 1910 1964 2030 1845 1787 1724 1748 1747 1660 1575 1675 1866 1756 1711 1801 1753 1594 1263 1214 1192 1089 1166 1163 650 883 784 836 756 842 1100 1238 1249 1251 1101
69 306 1194 1607 2303 2135 2170 2304 2498 2248 1907 1944 1892 1876 1819 1718 1620 1539 1649 1801 2014 1884 1668 1730 1737 1696 1403 1154 993 940 1141 1393 998 431 752 1102 837 945 1207 1380 1424 1579 1240
162 420 1479 1985 1807 2104 2095 2199 1878 1915 1926 1926 1936 1842 1689 1579 1471 1550 1669 1898 1936 1676 1528 1499 1633 1617 1380 1284 1082 1269 1122 1342 1386 403 290 1195 1214 1043 846 1321 1423 1523 1358
272 782 1149 2263 2310 2078 2105 2160 1788 1755 1796 1899 1920 1790 1620 1460 1426 1474 1537 1671 1848 1821 1558 1490 1383 1428 1319 1267 1208 1149 1316 1473 1253 547 806 1125 1275 1337 1429 1537 1658 1664 1657
373 677 952 1719 2027 2069 1950 1880 1815 1793 1780 1852 1918 1776 1576 1513 1483 1439 1450 1583 1750 1653 1442 1475 1462 1314 1223 1475 1358 1497 968 817 867 524 879 1220 1340 1328 1522 1458 1597 1614 1612
545 800 907 955 1567 1652 1707 1673 1782 1914 1869 1837 1800 1866 1712 1503 1458 1418 1433 1498 1447 1468 1432 1317 1399 1396 1274 1564 1512 1602 1515 774 836 695 527 1138 1450 1477 1683 996 1299 1614 1325
638 816 1174 809 1039 1218 1397 1562 1561 1786 1906 1919 1840 1762 1651 1633 1458 1520 1522 1438 1697 1364 1398 1409 1393 1462 1452 1482 1576 1689 1033 926 873 963 725 1333 1531 1707 1238 1300 562 1514 860
746 798 891 923 1425 1667 1481 1423 1472 1621 1793 1844 1830 1786 1614 1722 1736 1759 1822 2042 1765 1512 1433 1502 1443 1570 1758 1782 1433 1543 1350 631 588 1024 690 1030 1606 1617 1436 1569 1084 1416 592
642 798 871 908 1166 1377 1146 1536 1568 1218 1023 1326 1440 1859 1692 1697 1584 1669 1970 1964 1595 1526 1494 1533 1679 1845 1550 1575 1575 1708 1705 759 165 863 919 835 1381 1361 1105 1609 1657 1051 1083
469 603 835 974 1238 1171 1044 1326 1487 1204 1170 1341 1805 1827 1619 1719 1673 1686 1872 1739 1812 1494 1561 1416 1724 1563 1864 1426 812 1239 1634 658 310 360 524 921 1373 1148 1109 1641 1373 1574 1414
514 569 728 897 1185 1193 1079 1207 1257 1251 1195 1056 1168 1798 1580 1213 1405 1759 1817 1866 1866 1617 1583 1893 1810 1806 1651 1682 812 796 856 691 545 421 287 798 1343 1255 1150 1221 1642 1190 1328
514 528 704 921 1190 1289 1415 1087 1088 1349 1064 853 1163 1215 1021 1170 1689 1847 1701 1694 1918 1457 1427 2279 1864 1712 1558 1392 1020 675 846 858 800 832 583 686 1363 1491 1171 1303 1580 1515 1542
450 516 759 940 1107 1265 1262 1435 1496 1457 1157 1168 821 821 1046 1154 1857 1855 1778 1542 1802 1919 2093 1736 2094 1599 1677 1574 1609 1016 668 666 841 1023 898 726 1251 1434 1456 1243 1166 1677 1695
426 536 702 954 1036 1253 1292 1320 1496 1302 1063 746 666 1041 951 1104 1699 2034 2079 1714 2014 2011 2314 2142 1540 1393 302 80 105 74 94 477 469 830 1159 637 558 1020 1113 1619 1363 1200 1430
456 643 761 738 931 1160 1185 1267 1170 1085 860 583 584 650 877 1080 1615 1877 1993 1698 1709 2173 2641 1890 1234 1173 439 97 18 107 256 140 47 640 883 938 885 680 825 1050 1601 1332 1285
722 700 755 843 872 1036 1167 1147 1102 920 581 462 506 592 975 1358 1631 1729 1827 1772 2007 1840 2183 1689 1368 967 153 57 71 99 224 145 239 275 559 881 1043 1073 749 730 1077 1421 1144
865 961 859 847 972 1086 980 1007 853 696 392 281 423 860 1173 1638 1777 1950 1811 2137 1977 1830 1875 1651 1369 642 85 155 0 166 189 293 285 321 329 209 680 1137 1097 956 908 859 844
863 1006 1147 1137 1537 1080 919 731 504 307 423 831 1269 1591 1700 1766 2015 2201 1913 2103 2078 2007 1976 1764 1111 750 0 158 0 202 198 192 161 171 238 654 1082 1217 1290 1159 1036 1328 1211
973 1124 1399 1574 1655 1355 1075 1093 612 736 607 1226 1657 1740 1756 1919 2239 2230 2137 2044 2088 1921 2099 1741 1036 470 192 124 4 126 58 145 101 57 281 734 1190 842 828 902 982 1230 1088
1123 1307 1670 1991 1960 1620 1529 1037 907 1032 1227 1370 1601 1766 1853 2034 2280 2347 2330 2073 2207 2097 1758 1800 1013 584 65 140 15 50 56 45 195 45 175 573 860 499 480 267 269 768 680
1280 1238 1730 1816 2079 1700 2004 1478 1639 954 837 1016 1500 1738 1803 2052 2176 2267 2343 2145 2320 1953 1938 1720 1092 569 143 111 19 0 93 296 86 71 91 281 442 375 384 95 121 381 281
832 945 1164 1806 1993 2014 1987 1946 1627 1618 1099 1121 1357 2156 2703 2229 2081 2007 2322 2286 2303 2112 2103 1912 1167 568 204 91 60 1 6 17 111 83 67 65 132 89 169 129 36 127 301
866 771 839 1678 1896 1990 1956 2009 2163 2144 1959 1378 1479 1473 1470 1525 1693 2069 2118 2379 2348 2180 2183 1921 1422 854 351 151 166 124 13 0 22 89 69 81 54 18 0 2 24 13 198

GFSSE_con_mucape_036.txt.gz
CAPE
320 560 502 454 818 1472 1757 2447 2860 3055 2767 2586 2077 1921 2221 1995 1797 1820 1753 1770 1338 1523 1596 1633 1576 1641 1621 1379 1361 1054 796 694 885 1456 1537 1315 1104 1242 1529 1528 1600 1138 1950
262 461 421 779 1288 1646 1944 2420 3038 2955 2481 2151 2105 2253 1935 1828 1853 1738 1930 1716 1667 1375 1585 1575 1597 1666 1630 1339 1483 1458 1102 498 831 1095 1338 1269 1458 1044 783 1131 1722 1811 1891
137 231 616 1439 1643 2003 2266 2731 2743 2277 1977 2316 2154 1871 1931 1857 1838 1731 1573 1566 1767 1677 1596 1719 1628 1341 1394 1465 1566 1162 1133 645 897 791 899 701 1047 741 437 1201 1807 1861 1911
142 786 872 1726 2090 2106 2312 2604 2683 1938 2023 1991 1951 1996 1872 1882 1768 1626 1654 1907 1808 1687 1896 1829 1652 1322 1263 1213 1134 1233 1302 869 923 916 964 586 566 679 1068 933 1440 1721 1763
335 729 1180 1687 2092 2142 2224 2336 2480 1998 1970 1932 1918 1892 1882 1780 1638 1680 1872 1616 1816 1653 1723 1746 1760 1527 1262 1091 1040 1000 1241 1208 598 732 943 1354 474 1160 1270 1420 1480 1258 1033
416 686 1148 1728 1972 2213 2081 1985 1919 1984 1973 2020 1950 1816 1690 1570 1616 1688 2003 1844 1818 1603 1604 1677 1629 1427 1246 1176 1233 1092 1033 1485 968 118 604 1003 1104 1174 1290 1123 1419 1464 909
493 775 1302 2251 2424 2398 2119 1943 1936 1921 2012 1990 1816 1720 1607 1504 1529 1577 1725 1976 1883 1650 1601 1493 1479 1427 1384 1318 1388 1344 1339 1359 979 246 1063 1458 757 1274 1475 1516 1631 1482 1493
438 417 930 2105 2194 2337 2074 1882 1768 1821 1958 1989 1852 1730 1633 1554 1497 1502 1576 1756 1708 1595 1468 1484 1373 1261 1381 1462 1593 1277 1089 928 1010 234 804 1353 1370 1398 1595 1733 1749 1679 1578
322 313 543 1003 1655 2114 2047 1838 1837 1821 1858 1929 1891 1758 1623 1555 1516 1482 1489 1514 1461 1534 1379 1429 1489 1428 1456 1501 1642 1475 1127 687 1247 458 560 973 1423 1337 1546 1869 1863 1749 1726
342 285 491 805 991 1214 1508 1757 1867 1913 1871 1839 1798 1707 1623 1578 1481 1588 1429 1525 1539 1343 1479 1453 1494 1572 1618 1585 1802 1269 1170 836 1288 1001 287 1583 1677 1482 1313 919 1624 1294 1590
394 353 388 524 877 1092 966 1274 1584 1782 1868 1870 1786 1591 1463 1825 1740 1742 1444 1858 1388 1313 1342 1451 1452 1578 1733 1899 1782 1545 1535 608 1002 1050 926 1685 1654 1550 1370 1307 1132 967 824
505 359 348 425 670 909 653 1115 1149 869 861 1027 1417 1548 1892 1913 1891 1688 1674 1877 1456 1370 1481 1528 1710 1609 1562 1365 1227 2014 1041 484 533 790 1190 1348 1497 1402 1349 1605 1261 1434 628
537 372 359 518 846 844 714 1018 1043 826 871 1311 1772 1750 1802 1821 2029 1763 1890 1666 1807 1635 1790 1475 1567 1378 1537 1187 343 107 211 427 98 175 654 1050 1145 1290 1195 1292 1431 1224 1184
631 569 572 674 926 846 784 880 831 579 610 649 822 1656 1962 1868 1794 1915 1718 1671 1816 1936 1319 1013 858 1058 1343 1245 193 43 40 82 82 61 669 1045 1267 988 1137 1297 1550 1467 1433
709 727 759 936 1225 1158 1052 700 617 705 497 395 750 1196 1452 1486 1911 1834 1725 1556 1632 1760 1114 1272 1114 968 1112 751 321 213 40 56 159 203 641 1152 1398 1232 1043 1247 1349 1291 1496
674 688 718 922 1142 1228 1222 1137 938 942 603 590 495 761 1495 1587 2169 1884 1738 1491 1474 1658 1616 643 1095 1077 1392 1093 948 503 48 96 335 259 239 730 1163 1305 984 1083 1481 1671 1713
706 751 743 970 1061 1314 1330 1389 1321 845 721 518 459 950 1413 1657 2137 1844 1491 1608 1377 1422 1331 1284 1680 1688 767 400 430 440 32 95 136 279 139 385 606 943 1077 1059 1182 1467 1667
724 855 876 816 914 1292 1325 1390 1077 972 791 478 428 810 1255 1453 2082 2177 2037 1652 2025 1374 1128 1247 1589 1085 608 215 59 139 40 59 88 133 88 236 234 660 757 1209 1054 1039 1068
686 820 970 1016 933 1163 1452 1390 1305 1098 993 428 418 801 1132 1566 1903 2364 1875 1742 2328 2296 1310 1388 1321 954 323 160 121 71 161 169 174 74 191 273 585 505 615 900 1200 1144 1091
756 878 1163 1121 1274 1496 1450 1629 1198 906 779 345 507 754 1174 1648 1795 2444 1909 1671 1785 1770 1551 1572 1624 915 135 35 1 16 134 172 185 151 99 105 366 820 648 672 858 922 765
954 1125 1297 1383 1850 1655 1485 1267 968 622 437 298 538 911 1689 1990 2345 2798 2260 2234 2190 1716 1765 1718 1177 1208 166 8 18 49 117 111 202 93 100 163 132 237 277 507 855 550 1035
1075 1336 1727 1724 1957 2085 1561 1523 711 512 167 289 790 1373 2323 2569 2637 2907 2945 2250 2364 2058 2265 1967 1677 538 258 11 27 69 78 57 68 105 256 119 184 56 42 55 178 405 457
977 1282 1846 2400 2329 2315 2306 1360 1085 593 489 485 1018 1784 2449 2481 2679 3055 2698 2636 2452 2449 1846 2247 1882 1284 238 0 123 132 42 146 53 65 364 67 129 78 13 0 71 352 151
1163 1362 2104 2398 2725 2485 2431 1947 2455 888 645 550 1259 1566 1750 2488 2548 2646 2861 2919 3031 2226 2048 2206 1829 1431 1177 14 4 6 256 650 60 59 36 280 163 77 59 19 12 0 0
1108 1296 1713 2425 3236 3344 2754 2640 1893 2072 727 713 903 2715 3261 2738 2607 2315 2778 2973 2959 2781 2492 2639 2229 2137 1055 128 1 0 36 23 187 108 89 140 208 62 112 48 30 40 31
951 1293 1706 2931 3568 3075 2853 2579 3480 3292 2443 1258 1805 1720 1833 1789 2006 2478 2387 3015 3075 2819 2759 2835 2711 2204 1756 723 33 77 0 0 11 86 72 79 106 149 35 21 26 15 42

GFSSE_con_mucape_042.txt.gz
CAPE
239 211 737 940 1346 2443 2427 2446 2561 2543 2556 2486 2467 2388 2340 2188 2267 2237 2204 2105 2088 1973 1749 1955 1782 1393 1325 1423 1359 586 708 1363 1376 1537 1316 1395 1639 1578 1566 1647 1538 1575 2186
80 517 961 1666 2161 2544 2597 2740 2619 2591 2552 2597 2464 2364 2164 1987 2054 2000 2140 1848 1851 1869 1748 1896 1742 1430 1497 1634 1408 824 482 934 1104 1376 1408 1113 803 1133 1718 2361 1907 2162 2005
94 318 1022 2180 2275 2385 2561 2437 2535 2488 2470 2423 2347 2401 2183 1820 1962 2085 2022 1821 1749 1820 1772 1561 1511 1529 1520 1538 1273 1095 484 933 999 900 1101 779 273 1076 1580 1606 1980 2035 1895
39 373 1018 2170 2314 2337 2333 2581 2475 2427 2019 2371 2415 2164 2123 1602 1968 2036 1716 1726 2053 1850 1722 1546 1384 1338 1297 1228 1336 1329 664 602 890 935 801 939 15 738 1746 1688 1593 1602 1750
47 408 1453 1945 2120 2131 2592 2548 2516 2378 2136 2108 2006 2010 1629 1715 1896 1693 1778 1662 1736 1695 1677 1539 1495 1293 1158 1097 1090 1148 1281 626 656 1064 1115 1444 556 1077 1288 1353 1380 1478 1865
442 836 1767 2148 2049 2442 2550 2475 2342 2213 1991 2091 1917 1612 1640 1793 1983 1897 1820 1622 1667 1630 1574 1476 1422 1340 1225 1309 1146 1044 1260 1337 1203 1128 1126 1441 1141 1260 1311 1589 1397 1532 1440
454 1051 1513 2326 2335 2592 2437 2371 2279 2069 1848 1932 1740 1562 1575 1640 1791 1995 1909 1654 1614 1617 1576 1540 1526 1524 1483 1447 1252 1061 1366 1389 1115 722 633 1101 1616 2073 1479 1644 904 1298 1069
603 649 1400 2201 2363 2415 2138 2183 2319 1918 1720 1762 1647 1562 1591 1574 1638 1828 1800 1691 1515 1491 1480 1368 1377 1484 1535 1599 1309 1194 1153 1444 968 1696 906 1342 2269 2148 1761 1582 1566 1401 1445
630 895 1344 1598 1799 2075 2325 1959 1893 1819 1774 1768 1597 1540 1548 1572 1531 1567 1616 1652 1603 1540 1537 1501 1436 1491 1473 1580 1353 1004 1027 1349 1691 1609 1028 1296 2341 2055 1880 1711 1626 1781 1673
575 802 1235 1348 997 1233 1418 1639 1733 1762 1694 1702 1656 1575 1558 1559 1563 1393 1954 1893 1605 1661 1565 1528 1471 1506 1597 1609 1537 1142 766 1597 949 1076 987 1424 2210 1767 1869 1732 1823 1777 1727
580 499 515 504 1362 1770 1555 1483 1688 1672 1576 1571 1529 1477 1772 2155 1665 1704 2220 2082 1387 1344 1477 1400 1357 1517 1641 1945 1931 1564 1190 703 797 938 1130 2106 2168 1384 959 1739 1219 1793 1688
296 139 192 489 975 1176 576 1680 1875 1259 1059 1445 1289 199 424 1687 1847 1807 1615 2209 1247 1282 1360 1573 1106 1419 1351 964 1891 2215 1919 932 1252 551 1357 2428 2143 1687 1188 1314 794 1190 1679
414 48 200 791 1202 895 995 1084 1253 1168 1234 893 472 616 558 1099 2078 1856 1654 1015 163 974 1238 1368 695 1441 1681 1297 1118 1295 1562 1149 1093 626 1620 2398 2301 1748 1527 1512 1337 559 759
450 238 294 891 1294 1050 1030 535 1017 956 933 1334 1708 1649 2273 1384 1031 1069 1283 930 433 739 1380 1334 1638 1317 1303 1638 799 264 75 232 443 421 1328 2022 2090 1663 1478 1562 1508 1329 817
508 293 516 1044 1736 2331 2386 911 909 1650 1055 1579 2144 2445 2205 1130 1597 1331 1804 1149 1587 1310 1354 2206 1723 1339 133 1063 816 882 62 294 396 183 725 1737 1851 1849 1923 1625 1314 1529 1466
468 442 887 1234 1746 2579 2394 3233 1523 2144 1017 1395 1500 2080 2574 1715 1875 2866 2014 1810 2049 762 943 2055 2417 2102 1484 884 245 913 51 323 524 435 498 1388 1944 1785 1911 1831 1555 1355 1540
566 536 960 1300 1343 2262 2375 2275 2436 2134 597 1094 1521 2666 2063 2645 2942 3221 2295 1955 1221 2389 2635 1954 2171 836 429 1142 297 210 520 273 44 406 363 476 1410 1800 1860 1902 2039 2242 1609
451 842 1114 442 1155 1458 1959 2340 2075 1352 1449 1506 1497 2183 2408 2508 2690 2359 676 1572 1441 2901 2340 2340 854 1727 1118 1057 572 574 111 328 300 418 208 430 557 528 1581 1992 2044 2192 1756
692 1275 1433 1294 1286 1454 2376 2059 1714 1832 1962 1797 1766 2007 2690 2988 2980 2857 1296 647 1012 2685 1679 1993 1361 1777 1208 413 15 609 437 31 18 52 244 462 710 266 464 1847 1949 2033 1488
1083 1565 1440 1419 2218 1961 1819 2222 1692 1373 1623 1649 1927 1874 2761 2882 2967 2762 1219 964 2230 963 2630 2506 2086 824 1110 150 28 188 282 43 27 121 191 197 683 718 399 661 1424 1005 1595
1086 1635 1593 1965 2549 2078 1841 1701 1680 1175 1466 1758 1877 2214 3105 3129 3237 3053 2590 1859 2794 2257 1542 2835 1265 1587 1289 136 385 369 364 305 600 189 60 75 427 200 305 1227 478 616 717
1006 1597 1948 1933 2600 2399 2017 1903 1685 1994 1314 1303 1591 2507 2571 2776 3094 3680 2283 2794 2337 2467 2851 2222 2600 1893 977 980 530 52 178 425 174 64 330 394 225 397 210 238 627 1066 403
1224 1579 2002 2101 2847 2637 2262 2383 2700 2483 2680 1867 1294 1394 2207 2842 3252 3193 2964 2798 2593 3483 3027 2975 2182 2111 546 287 990 233 298 296 158 187 236 49 138 10 10 181 221 715 356
1074 1463 2041 2242 2379 2724 2707 2103 2354 1409 1124 985 1263 1238 1855 2279 2721 3262 3024 2596 3404 2580 2296 2599 3032 2799 1896 736 179 518 1274 1690 965 158 315 189 360 97 303 96 70 72 7
1032 1485 1953 2356 2541 2834 2167 2911 2026 1855 1168 1094 1338 1597 2417 2819 3243 3274 3360 3147 3970 2797 2978 2697 3113 2666 2960 1947 727 344 765 1013 1087 328 287 356 242 536 536 292 20 17 173
1128 1631 1865 2582 2677 2955 2887 2318 3335 1995 1893 960 1047 1471 2127 2847 2756 3650 3476 3386 3551 3542 3383 3337 4075 3527 3078 2877 2007 934 409 205 486 302 352 500 366 682 414 150 94 132 121

GFSSE_con_mucape_045.txt.gz
CAPE
88 385 1228 1681 1662 1832 2001 1969 2159 2343 2033 2624 2380 2212 1929 2131 2061 2543 2440 2115 1919 2072 1908 1737 1344 1410 1637 1539 650 592 1409 1456 1575 1372 1598 1826 1783 1891 1777 1691 1918 1603 1990
44 437 1679 2063 2361 1994 2316 2490 2471 2254 2221 2166 2506 2114 2190 2010 1986 1993 2193 1876 1773 2072 1864 1889 1301 1629 1626 1460 1102 521 1128 1061 1473 1427 969 1342 1695 1783 2289 1697 2047 1938 2079
224 674 1640 2378 2453 2370 2250 2549 2290 2152 1838 2032 2252 2422 1868 1737 2011 1910 1800 1805 1859 1720 1597 1638 1575 1569 1569 1328 1288 602 940 1187 995 1117 1081 327 1303 1548 1773 2080 2143 2045 1978
200 1032 1443 2352 2406 1933 2395 2515 2323 1735 1921 2115 2497 2353 1956 2274 2248 1830 1904 2098 1888 1697 1572 1449 1460 1464 1375 1334 1402 1126 562 1017 1116 893 470 628 913 1516 1666 1857 1780 1930 1779
395 1145 1456 2282 2459 2324 2300 2334 2581 2289 1802 1947 2250 1857 1978 2501 1973 1828 1717 1774 1727 1685 1578 1555 1395 1303 1225 1149 1100 1156 978 646 991 1051 716 255 514 1440 1338 1510 1716 1749 1674
773 1199 2046 2218 2175 2412 2325 2309 1988 1898 1746 2182 2220 1900 2076 2161 1919 1832 1732 1765 1702 1640 1574 1513 1451 1364 1327 1254 1027 1053 1154 1109 1201 880 796 1073 953 1494 1896 1827 1734 1700 1977
925 1419 1702 2374 2335 2508 2233 2020 2095 1893 1829 2010 1975 1766 1886 1997 2076 1929 1782 1781 1745 1690 1640 1615 1605 1552 1553 1325 1061 1048 1291 1355 811 764 1102 1250 1530 2178 1820 1352 1262 1220 1771
920 1309 1557 1973 2504 2411 1788 1771 2208 1779 1722 2062 1958 1656 1730 1801 1962 2512 1803 1683 1677 1641 1510 1453 1495 1542 1639 1402 1187 1204 1263 1500 935 883 1173 1474 2263 2176 1787 1682 1465 1470 1677
785 1206 1476 1636 1526 1796 2345 1938 1948 1716 1803 1804 1665 1622 1606 1617 1687 1796 1883 2054 1711 1686 1603 1536 1479 1493 1612 1499 1216 1115 1134 1528 825 895 1298 1656 2509 2007 1812 1711 1774 1765 1697
881 1219 1400 1389 1292 1528 1578 1862 1828 1738 1827 1735 1694 1610 1539 1454 1389 1588 2003 2077 1768 1650 1578 1500 1506 1538 1632 1594 1498 1180 867 1576 1010 723 1128 1764 2481 2023 1931 1821 1850 1853 1778
738 1016 1080 1029 1105 1200 1210 1406 1656 1693 1737 1766 1715 1689 1610 1251 1235 1217 1493 1906 1547 1459 1487 1391 1480 1675 1749 1713 1728 1458 1210 713 968 713 1167 1988 2157 1725 1609 1691 1913 1849 1864
597 756 695 634 687 881 956 1240 1279 1288 1244 1218 1167 700 424 690 1053 1407 1574 2074 1572 1545 1822 1554 1361 1735 1400 774 1471 1875 1282 630 760 836 1272 2306 2123 1045 1535 1153 1729 1859 1825
348 287 289 623 743 640 824 941 1109 878 757 958 750 237 102 971 816 1097 874 727 94 407 644 848 432 681 779 845 921 1367 1418 775 435 960 1758 2377 2431 1615 1458 1115 697 1509 1750
110 40 67 520 607 500 385 562 875 760 700 501 457 181 122 423 404 731 738 367 348 357 714 1052 804 807 705 875 1166 995 1013 830 413 1014 2012 2577 2526 1759 1678 1660 1102 592 791
56 0 30 267 474 521 317 163 618 595 624 611 746 816 696 619 624 900 934 677 577 606 714 1143 1119 796 243 116 177 106 619 292 170 456 1422 2212 2340 2120 1758 1420 1544 1466 1180
87 0 121 204 530 388 825 554 181 885 483 1124 1378 1385 890 649 911 1006 1035 865 906 650 345 1384 1153 1027 705 633 148 42 208 141 134 275 624 1280 2109 2010 2169 1747 1424 1517 1584
70 53 138 212 809 702 732 839 1035 919 261 637 1289 1362 1190 802 1050 1253 1124 918 589 633 610 1338 1052 555 279 331 91 23 53 75 101 222 396 871 1480 2057 2170 2189 1946 1916 1584
116 246 276 271 754 1035 734 816 1018 726 821 461 1091 1042 1394 1439 1624 1119 861 952 907 1068 1314 949 1097 512 187 480 53 46 54 73 63 134 183 398 797 758 1932 2275 2112 2227 1543
200 294 329 275 463 1092 789 1039 721 777 821 803 1159 1025 1049 1276 1721 1194 603 465 752 1327 1318 1099 418 734 490 443 67 33 19 31 51 139 140 227 302 408 660 2117 2120 2114 1764
139 195 286 380 283 652 985 1134 656 475 704 857 727 1106 1379 1497 1802 1491 1011 512 988 969 1459 1291 232 75 115 43 31 49 30 39 42 74 138 210 207 189 384 851 966 1108 1643
117 326 79 581 579 355 1246 1019 976 449 536 706 517 1642 1565 1573 1747 1542 1032 998 1155 1104 797 1336 149 254 74 22 80 46 20 57 26 13 183 292 172 149 263 340 519 376 848
368 269 422 785 891 529 902 610 959 830 514 637 446 1356 1716 1773 1834 1804 1392 1407 1318 1088 937 1235 642 464 49 27 55 21 1 25 50 51 56 166 198 177 140 237 269 283 405
472 315 485 583 1217 771 912 855 811 888 792 767 504 319 1754 1533 1599 1981 1523 1488 1139 1383 1210 1113 716 789 1 29 46 5 27 38 33 39 42 59 38 19 130 425 297 370 195
531 577 442 778 1566 1087 1235 1056 881 712 579 992 470 427 1041 1698 1749 1638 1789 1451 1363 1369 1433 1207 909 400 0 0 1 134 38 134 11 1 21 3 1 2 14 34 346 201 352
383 798 681 756 1312 1368 1145 1058 1092 877 906 478 602 379 958 1008 1312 2238 1691 1625 1388 1635 1324 928 1707 1270 139 96 0 0 0 19 35 16 10 5 2 0 0 0 1 148 0
556 857 986 842 1127 1389 1306 1296 944 1168 823 682 249 310 797 1386 1546 1958 2222 1886 1952 1630 1394 1401 1582 789 1347 889 217 0 0 0 0 18 27 14 20 16 0 0 0 0 0

GFSSE_con_mucape_048.txt.gz
CAPE
75 353 1536 1881 1600 1820 1886 1687 2019 2297 2208 2122 2072 2076 1988 2034 2120 2322 2468 2238 2253 1889 1739 1437 1716 1859 1407 478 989 1523 1513 1561 1588 1942 1964 2070 2047 2016 2125 2014 1864 1614 1907
136 556 1635 2288 1895 1872 2106 2013 2241 2199 2138 1906 2360 2334 1989 1864 1956 2082 2371 2110 2070 2018 2000 1491 1817 1785 1506 803 953 1142 1522 1651 1438 1303 1672 2017 2034 1853 2107 1953 1958 1720 1899
354 993 1321 2173 2094 1919 2406 2095 2211 1653 1889 2183 1912 1919 1946 1994 1935 1909 2034 1875 1895 1785 1852 1636 1716 1757 1475 1059 869 1360 1276 1154 1497 809 1598 1317 1516 1896 1801 2170 1941 1956 1802
768 1324 1693 2278 2142 1852 2218 2183 2189 1893 1956 2010 1875 1914 2151 1963 1874 2296 2023 1968 1817 1679 1630 1676 1650 1423 1538 1367 940 1102 1189 1307 1302 1153 411 940 832 1760 2060 1976 1947 1795 1749
979 1483 1590 2500 2486 1949 1859 2178 2060 2042 2161 1691 1842 2067 1999 2177 1790 1799 1896 1759 1784 1723 1693 1553 1470 1407 1359 1269 1064 895 1067 1436 1220 802 337 796 1094 1627 1700 1843 1868 1638 1716
953 1261 2120 2321 1803 1922 2083 1707 1916 1689 2104 1777 1979 2229 2162 1946 1796 1854 1789 1756 1735 1709 1656 1593 1511 1429 1469 1248 1194 1329 977 1096 1180 490 562 1139 1123 1563 1991 1806 1604 1760 1540
1169 1474 1683 2707 2449 2219 1867 1839 1645 1799 1801 1805 1957 2019 2166 2088 2025 1932 1968 1893 1854 1794 1749 1755 1696 1657 1477 1353 1241 1423 1359 1238 757 865 956 1218 1715 2365 1880 1671 1599 1764 1636
1297 1550 1701 2339 2530 2097 1698 1755 1782 1736 1605 1770 1783 1866 1955 2145 2085 1912 1820 1796 1740 1658 1556 1608 1636 1710 1613 1340 1256 1447 1551 1335 1016 1020 1252 1521 2323 1853 1387 1229 1577 1693 1601
1348 1513 1632 1567 1565 1708 1894 1961 1684 1732 1723 1740 1778 1756 1754 1794 1861 1924 1872 1796 1724 1693 1648 1661 1701 1653 1594 1353 1299 1262 1949 1376 855 1158 1477 1741 2466 1946 1701 1548 1690 1606 1656
1234 1401 1574 1406 1301 1548 1586 1889 1709 1842 1794 1751 1733 1698 1608 1502 1499 1639 1898 2107 1675 1591 1545 1584 1704 1732 1603 1676 1415 1151 1432 1580 858 1263 1496 1979 2434 1821 1860 1891 1838 1766 1673
1200 1331 1367 1210 1363 1441 1493 1491 1657 1884 1865 1809 1641 1720 1608 1091 1165 1212 1519 1655 1518 1450 1467 1310 1543 1772 1648 1578 1539 1556 881 811 580 1149 1619 2287 2373 1829 1808 1788 1959 1802 1752
924 1096 1179 1074 1165 1204 1301 1372 1270 1403 1475 1342 898 718 736 791 997 1267 1399 1646 1511 1677 1681 1622 1202 1450 1459 648 874 1622 654 677 579 1103 1461 2276 2221 1476 1498 1759 1843 1952 1923
801 885 820 829 969 973 918 1188 1089 1095 1001 926 726 15 395 782 1049 1210 1023 907 304 286 283 734 555 544 648 714 653 1187 1367 575 555 944 1569 2309 1758 1472 1115 1465 1829 1721 1834
698 716 564 529 738 704 769 766 737 725 591 761 546 4 402 343 639 524 401 228 161 223 479 682 907 856 902 656 901 962 936 475 545 946 1685 2444 2175 1589 1237 783 1061 1489 1642
523 417 359 417 557 551 489 285 615 548 468 526 282 69 242 147 375 504 318 442 363 442 582 869 1008 933 396 53 95 750 793 536 412 1118 1491 2356 2309 2187 1653 1387 763 606 759
331 204 222 432 417 429 289 38 451 485 414 497 476 498 393 520 701 729 763 633 512 682 649 833 983 700 425 152 77 459 745 434 225 857 1409 1646 2383 2308 2054 1494 1535 1448 1316
192 64 77 355 390 267 315 35 194 318 382 497 619 704 526 218 621 867 733 797 672 607 577 954 831 516 234 261 34 239 298 69 52 192 676 1037 1598 2482 2082 1731 1658 1653 1610
120 8 32 151 338 163 514 406 597 412 283 682 923 991 757 617 965 963 868 750 633 793 955 1103 878 497 66 218 46 90 96 71 61 177 380 628 877 1141 2157 2338 2333 2018 1500
60 27 36 58 493 160 762 509 509 495 478 582 956 1021 951 1192 1248 747 601 664 782 852 1282 1101 740 617 276 205 68 61 86 105 59 83 153 169 384 519 1048 2024 1962 2118 1608
106 115 6 26 522 320 546 280 306 318 292 554 802 712 1151 1348 1257 730 671 368 403 1059 1077 787 814 298 326 238 147 40 52 81 85 80 134 149 140 184 349 1069 1110 1112 1636
145 99 66 33 342 378 502 299 179 156 118 231 461 784 744 922 1343 1019 733 652 651 874 1035 751 0 3 0 36 50 43 60 62 82 58 80 121 122 114 189 367 471 467 769
125 185 109 26 71 448 356 378 189 64 33 88 319 899 860 1053 1379 1137 738 826 893 1096 674 873 234 338 0 27 37 31 24 52 30 21 28 129 109 86 178 100 127 117 326
141 220 204 72 8 225 444 415 552 331 150 162 309 487 1010 1129 1337 1293 1104 1168 1124 1161 808 852 526 292 0 38 18 2 22 4 21 14 32 141 101 61 71 113 176 166 148
270 247 192 227 166 91 527 307 443 455 587 317 249 261 1056 1173 1339 1544 1228 1182 1054 997 1199 1003 404 648 0 0 13 47 1 24 0 0 0 51 54 55 50 52 186 226 84
255 236 199 532 351 291 528 388 309 376 589 726 482 344 341 1218 1347 1279 1447 1436 916 1110 1008 893 980 483 0 0 0 1 16 21 24 0 0 5 0 0 0 62 171 295 117
241 101 251 650 544 477 566 493 394 304 328 450 523 569 306 759 1123 1389 1279 1283 1094 989 1329 1165 1145 1005 426 0 0 0 0 0 0 19 7 2 1 0 0 0 56 103 105